This is the latest recevied weather packets stored in our database for station/object SQ9RHX-13. If no packets are shown the sender has not sent any weather packets the latest 10 day(s).
| Time | Temp. | Humidity | Pressure | Rain* | Wind** | Luminosity | Snow |
|---|---|---|---|---|---|---|---|
| 1777978803 | 26.67° C | 35% | 1010.8 hPa | 0 mm | - | 676 W/m² | - |
| 1777978502 | 26.67° C | 36% | 1010.9 hPa | 0 mm | - | 671 W/m² | - |
| 1777978203 | 26.11° C | 34% | 1011 hPa | 0 mm | - | 693 W/m² | - |
| 1777977904 | 25.56° C | 36% | 1011.2 hPa | 0 mm | - | 687 W/m² | - |
| 1777977604 | 25.56° C | 37% | 1011.2 hPa | 0 mm | - | 632 W/m² | - |
| 1777977304 | 25° C | 38% | 1011.2 hPa | 0 mm | - | 490 W/m² | - |
| 1777977003 | 25.56° C | 38% | 1011.1 hPa | 0 mm | - | 553 W/m² | - |
| 1777976705 | 25.56° C | 38% | 1011.1 hPa | 0 mm | - | 484 W/m² | - |
| 1777976403 | 25.56° C | 39% | 1011.3 hPa | 0 mm | - | 648 W/m² | - |
| 1777976104 | 25.56° C | 39% | 1011.3 hPa | 0 mm | - | 692 W/m² | - |
| 1777975803 | 25.56° C | 40% | 1011.3 hPa | 0 mm | - | 683 W/m² | - |
| 1777975505 | 24.44° C | 41% | 1011.3 hPa | 0 mm | - | 676 W/m² | - |
| 1777975202 | 23.89° C | 42% | 1011.5 hPa | 0 mm | - | 641 W/m² | - |
| 1777974903 | 23.89° C | 43% | 1011.4 hPa | 0 mm | - | 415 W/m² | - |
| 1777974604 | 23.89° C | 42% | 1011.5 hPa | 0 mm | - | 422 W/m² | - |
| 1777974303 | 23.89° C | 42% | 1011.6 hPa | 0 mm | - | 505 W/m² | - |
| 1777974003 | 23.89° C | 41% | 1011.6 hPa | 0 mm | - | 394 W/m² | - |
| 1777973703 | 23.89° C | 42% | 1011.7 hPa | 0 mm | - | 440 W/m² | - |
| 1777973402 | 23.89° C | 42% | 1011.6 hPa | 0 mm | - | 413 W/m² | - |
| 1777973103 | 23.89° C | 39% | 1011.5 hPa | 0 mm | - | 373 W/m² | - |
| 1777972803 | 24.44° C | 40% | 1011.8 hPa | 0 mm | - | 461 W/m² | - |
| 1777972503 | 23.89° C | 41% | 1011.7 hPa | 0 mm | - | 551 W/m² | - |
| 1777972204 | 23.89° C | 38% | 1011.9 hPa | 0 mm | - | 697 W/m² | - |
| 1777971903 | 24.44° C | 41% | 1012 hPa | 0 mm | - | 642 W/m² | - |
| 1777971603 | 23.89° C | 42% | 1011.9 hPa | 0 mm | - | 654 W/m² | - |
* Rain latest hour (hover to see other rain measurements)
** Current wind speed in m/s (hover to see current wind gust speed)